GFSGBSN_250_rhum_057.txt.gz
RH
35 36 44 67 54 61 83 63 50 45 44 46 49 50 24 25 24 21 11 6 4 2 3 3 3 2 2 2 2 2 2 2 3 3 4 4 5 7 8 11 14 13 13 14 13 15 19
36 39 52 48 48 50 87 70 56 45 45 53 58 51 28 26 22 29 17 6 4 2 3 3 3 2 2 2 2 2 2 2 2 3 4 4 5 7 9 10 13 15 14 15 16 15 17
30 53 58 68 51 46 68 70 53 46 56 56 68 50 31 32 34 25 14 6 4 2 3 3 3 2 2 2 2 2 2 2 2 3 4 4 5 6 8 12 12 13 13 13 15 16 17
30 52 65 69 65 47 56 77 54 46 56 59 70 54 40 37 35 29 14 6 3 3 3 3 2 2 2 2 2 1 1 2 2 3 5 5 5 8 9 11 14 14 17 14 16 19 17
37 57 86 63 45 45 49 82 53 46 51 64 69 56 46 40 39 37 14 7 3 3 3 3 2 2 2 2 2 2 2 2 2 3 5 6 6 7 9 10 14 16 17 14 15 18 19
55 66 74 52 44 45 60 78 57 62 60 66 73 61 52 45 51 42 21 7 4 4 4 2 2 2 2 2 2 2 2 2 2 4 6 6 6 7 10 11 13 17 15 12 16 18 22
67 87 78 60 50 47 71 62 56 63 64 68 74 63 57 48 47 47 25 6 4 5 5 3 2 2 2 2 2 2 2 2 2 3 4 7 7 7 9 14 16 20 21 20 22 21 21
94 83 82 70 42 49 58 51 56 56 72 72 71 67 56 55 53 51 26 6 6 6 4 2 2 2 2 2 2 2 2 2 2 3 6 6 9 9 10 12 14 17 18 21 22 21 24
59 75 76 74 55 55 68 50 52 60 84 82 68 73 58 52 60 50 32 7 7 7 4 2 2 2 2 2 2 2 2 2 2 4 6 6 11 11 11 13 16 16 19 23 22 23 23
66 72 63 68 47 62 64 48 50 75 89 89 71 69 64 71 60 49 36 8 8 8 4 2 2 2 2 2 2 2 2 2 3 4 6 8 14 13 13 14 15 16 16 17 20 23 24
71 54 51 68 78 89 71 46 51 84 94 89 74 78 73 77 59 44 46 7 9 8 5 3 2 2 2 3 3 2 2 2 3 6 6 6 14 15 14 16 16 17 17 17 22 21 24
57 69 64 72 85 78 54 47 58 92 96 93 80 84 80 78 56 55 46 9 10 8 6 3 2 2 2 3 3 3 3 3 4 5 7 10 15 17 14 14 16 17 19 18 19 18 21
78 74 87 80 68 61 55 44 86 92 100 92 81 85 85 71 56 58 50 12 10 9 6 4 2 2 2 3 4 3 3 4 5 6 6 10 17 18 15 16 17 18 18 17 17 20 24
69 58 66 60 64 48 59 58 93 88 100 90 85 88 82 66 57 74 46 20 10 9 6 4 3 2 3 4 4 4 4 4 6 9 12 12 16 18 15 15 17 18 19 21 22 24 26
49 76 41 51 64 62 70 94 78 99 99 88 94 85 82 62 63 45 36 25 12 8 6 5 4 3 3 4 5 5 4 5 6 8 10 17 23 24 19 17 16 19 19 20 24 26 29
65 56 50 74 64 73 90 97 80 100 98 90 99 86 76 60 68 66 40 26 12 8 6 4 4 3 3 4 5 7 6 6 8 8 10 19 28 28 31 24 21 21 22 23 23 24 29
90 94 90 81 92 90 100 85 89 100 98 97 99 87 68 60 68 66 37 27 14 8 6 6 4 4 4 4 5 8 7 7 9 13 17 22 26 34 38 35 30 24 22 23 24 29 28
100 100 96 92 96 100 92 85 100 100 100 100 99 89 59 65 66 50 39 29 20 9 7 6 6 5 4 5 6 7 8 7 9 14 22 26 35 37 39 43 45 44 40 32 27 32 28
100 100 100 93 100 80 87 98 100 100 100 100 99 85 61 61 66 55 39 35 27 13 8 7 7 6 6 5 6 8 10 10 8 10 17 23 30 40 50 53 56 58 58 51 43 38 33
91 100 100 100 100 71 86 100 100 100 100 99 100 79 64 67 63 50 38 38 40 28 7 9 8 7 8 7 6 8 10 12 12 12 14 20 26 35 46 51 55 62 63 63 60 63 57
100 100 100 100 93 74 96 100 100 100 100 100 99 77 69 72 60 48 36 39 44 45 17 9 11 10 9 7 7 7 10 12 15 14 15 17 21 26 39 48 53 64 66 72 73 56 46
100 100 100 88 83 91 100 100 100 100 100 100 92 88 78 70 65 36 32 40 48 49 34 25 14 12 12 11 10 8 8 12 13 18 18 18 21 20 29 38 41 49 58 56 58 56 53
100 100 91 83 86 95 100 100 100 100 100 99 89 93 80 65 71 44 31 37 43 53 58 45 28 21 17 16 16 13 9 9 13 15 20 25 22 24 26 28 28 32 30 33 37 42 40
100 100 89 77 75 100 100 100 100 100 100 89 90 92 79 70 61 41 32 35 42 49 51 53 53 40 30 21 21 20 15 10 9 12 15 20 24 33 29 29 27 32 31 36 41 45 53
100 97 82 68 95 100 100 100 100 100 100 86 100 82 74 72 62 40 36 35 45 45 50 56 59 63 51 32 19 19 19 16 13 11 14 16 19 21 22 31 38 34 36 38 39 42 46
96 92 69 80 100 100 100 100 100 100 93 97 97 74 70 75 66 43 42 36 41 44 44 49 56 62 66 48 28 20 21 17 16 12 12 16 19 22 23 23 23 44 46 54 50 48 48
90 85 61 90 100 100 100 100 100 97 99 100 89 76 77 84 56 45 52 41 47 46 41 42 52 60 75 77 52 37 25 23 19 16 14 12 15 20 24 25 30 43 30 26 25 43 66
83 68 68 98 100 100 100 100 99 99 100 100 83 75 81 80 58 48 50 44 52 48 47 42 46 53 62 80 77 62 42 30 25 20 18 16 15 17 21 24 28 34 42 42 43 45 48
73 60 79 100 100 100 100 98 99 100 100 100 79 75 67 75 70 54 54 49 54 57 53 49 45 48 53 66 84 74 60 56 31 23 21 19 17 16 19 25 33 36 41 48 53 51 49

GFSGBSN_250_rhum_060.txt.gz
RH
39 45 43 49 67 44 36 35 60 62 49 48 40 53 44 46 45 23 23 13 7 4 5 4 3 2 2 2 2 2 2 2 2 2 2 3 4 4 5 6 10 10 12 14 19 17 18
56 53 53 63 58 53 39 36 51 65 59 55 45 49 46 44 44 27 30 16 8 5 5 5 3 2 2 2 2 2 2 2 2 2 3 3 4 5 6 6 8 10 13 15 20 20 16
66 82 80 83 76 64 49 39 67 85 68 60 50 55 52 46 41 32 35 15 9 6 5 5 3 3 2 2 2 2 2 2 2 2 3 4 4 5 6 6 8 11 13 16 19 20 18
75 87 99 92 73 78 50 49 80 91 76 68 50 61 57 44 48 31 39 27 9 6 6 5 4 3 2 2 2 2 2 2 2 2 3 4 4 6 7 8 8 10 12 10 17 18 21
77 82 62 90 64 62 52 55 83 84 88 72 50 73 56 44 58 44 42 25 9 8 7 5 4 2 2 2 2 2 2 2 1 2 3 4 5 5 7 8 9 10 12 12 16 24 17
67 58 50 42 54 62 57 68 99 82 85 70 59 80 56 42 51 43 44 36 12 8 7 4 4 2 2 2 2 2 2 2 1 2 2 4 5 5 7 9 10 12 13 12 13 17 18
99 80 69 56 57 55 64 73 100 94 73 72 91 90 58 48 47 54 43 35 10 9 7 5 3 2 2 2 2 2 2 2 2 2 2 4 5 6 7 10 13 18 19 12 15 16 19
82 78 85 72 76 72 78 83 100 89 78 69 88 80 57 52 56 56 55 43 13 9 7 6 3 3 2 2 2 2 2 2 2 2 2 4 6 9 8 12 12 16 19 19 17 16 21
100 100 96 94 99 86 89 100 100 99 59 77 100 77 55 61 64 62 64 59 12 10 7 6 3 2 2 2 2 2 2 2 2 2 3 4 6 8 8 10 11 14 15 13 14 13 13
81 100 100 100 97 100 100 100 100 92 80 86 100 77 63 75 68 51 67 53 14 8 6 5 4 2 2 2 2 2 2 2 2 3 2 4 6 9 11 10 13 13 17 15 15 14 18
80 72 90 93 100 100 100 100 100 89 86 93 87 74 77 74 78 68 70 58 15 9 5 5 3 2 2 2 2 2 2 2 2 2 3 4 8 11 14 11 13 15 15 15 15 17 19
100 97 93 89 100 99 100 100 100 100 97 81 74 74 83 81 84 64 69 52 20 11 8 5 4 2 2 2 3 3 2 3 3 2 3 5 10 14 16 14 14 16 19 19 21 17 17
100 100 97 77 96 100 100 100 97 94 95 96 75 81 91 89 88 70 63 61 17 14 9 5 4 2 2 2 3 3 3 3 4 3 3 6 9 13 18 17 17 16 17 18 20 17 21
68 100 100 100 86 71 100 98 100 100 92 85 84 98 97 90 86 70 57 65 17 15 11 5 4 2 2 2 3 4 4 4 4 4 4 5 7 15 19 16 16 17 19 19 22 24 25
20 46 67 100 96 95 100 97 86 100 91 89 100 100 100 88 81 65 56 68 20 17 13 6 4 4 2 3 3 4 4 4 5 6 8 8 8 15 20 20 17 16 17 19 22 24 23
13 17 33 61 96 100 100 95 91 98 100 91 100 100 100 90 78 61 58 54 29 18 15 8 5 4 3 3 4 5 5 5 5 7 9 10 13 21 22 20 18 16 18 22 24 24 25
15 16 24 33 57 97 100 100 100 100 99 100 100 100 100 90 71 59 57 50 38 18 14 9 6 5 4 3 4 5 7 6 6 7 10 13 22 27 26 24 21 20 20 22 23 24 24
16 17 50 47 56 80 100 100 100 94 98 100 100 100 98 81 69 62 37 48 38 20 13 11 7 6 6 4 5 5 8 8 8 8 17 22 27 34 34 30 25 23 22 21 21 22 21
15 21 40 64 72 92 100 100 100 91 100 99 100 100 97 76 71 64 39 45 40 23 15 12 10 8 7 7 5 6 8 10 10 10 13 16 26 32 35 40 37 30 25 22 21 24 29
37 29 81 100 100 98 100 100 90 93 95 100 100 100 94 77 63 65 46 44 39 28 17 14 14 12 11 9 9 7 7 10 12 12 12 13 14 24 32 38 40 38 38 34 30 30 28
42 66 98 99 100 100 100 100 100 100 100 100 100 100 89 82 63 62 42 40 42 35 24 14 14 15 12 13 11 12 9 8 11 15 15 15 17 15 20 32 44 53 54 54 59 50 49
48 96 83 100 100 100 100 100 100 100 100 100 100 100 94 80 68 66 47 37 37 41 31 33 16 18 14 13 17 18 18 16 10 11 15 18 20 19 21 26 32 34 42 46 47 42 47
100 84 100 100 100 100 100 100 100 100 100 100 100 92 93 78 65 69 49 38 35 38 41 42 34 24 28 18 12 17 21 24 19 12 13 18 24 26 22 22 23 29 30 35 36 36 43
100 100 100 100 100 100 100 100 100 100 100 100 96 100 90 85 79 73 57 37 31 37 43 47 47 50 44 30 22 14 15 19 25 23 16 14 18 24 26 28 27 31 32 34 34 38 43
100 100 100 100 100 100 100 100 100 100 100 100 100 98 98 94 76 63 54 38 36 33 38 45 54 55 59 59 39 30 17 17 18 21 21 18 18 21 25 34 42 42 46 44 42 46 46
100 100 100 98 100 99 100 100 100 100 100 100 97 98 100 99 81 76 54 50 44 36 39 41 50 56 62 60 67 53 38 25 23 22 20 20 19 17 18 24 36 78 51 45 46 53 60
100 100 100 100 96 99 100 100 100 100 100 96 96 100 100 96 82 75 54 54 47 39 39 40 45 50 56 57 67 75 71 65 40 32 28 24 22 21 21 20 21 28 32 35 50 60 71
100 100 100 100 100 100 100 100 100 100 100 93 100 100 100 88 80 76 59 58 58 46 45 38 44 42 50 51 58 64 68 73 67 54 35 21 28 25 23 22 22 23 24 23 27 37 48
100 100 100 100 95 100 100 100 100 100 100 91 100 100 99 88 77 75 70 69 62 48 48 50 46 42 43 46 51 56 59 64 58 57 58 59 48 42 29 24 20 20 23 26 39 36 35

GFSGBSN_250_rhum_063.txt.gz
RH
62 49 44 38 46 47 44 64 70 72 62 67 58 62 54 56 68 56 48 64 31 14 9 7 5 4 3 2 2 2 1 2 2 2 2 2 2 3 4 4 5 6 9 11 14 17 23
76 54 60 56 50 56 51 67 78 77 78 60 53 60 57 62 66 54 55 64 32 20 10 8 5 4 3 2 2 2 1 2 2 2 2 2 2 3 4 4 6 8 8 9 15 18 24
74 70 88 70 71 58 62 51 66 65 66 66 63 59 61 76 69 65 63 52 38 12 12 7 6 4 3 2 2 2 1 2 2 2 2 2 3 3 4 4 6 8 13 10 16 25 21
54 58 68 80 100 93 82 75 60 81 91 79 72 71 67 91 75 75 69 49 35 16 9 7 5 4 2 2 2 1 1 2 2 2 2 3 3 4 4 5 5 7 12 8 14 19 21
63 75 87 77 70 75 81 86 78 74 92 84 82 83 82 87 69 78 66 51 39 16 9 7 5 3 2 2 2 1 2 2 2 2 2 3 4 4 4 5 6 6 8 7 16 22 18
84 94 100 86 83 97 96 100 100 96 100 95 96 94 88 97 94 69 64 64 43 15 9 8 5 2 2 2 2 2 2 2 2 2 2 2 4 5 5 6 6 7 8 13 15 19 12
100 100 100 100 98 100 92 95 100 100 100 100 100 100 100 100 99 79 63 71 50 11 10 7 4 2 2 2 1 2 2 2 2 2 2 2 4 6 8 8 8 10 11 15 19 15 14
64 95 96 100 100 99 100 100 100 100 100 100 100 100 100 95 90 87 67 61 32 14 10 7 4 3 3 2 1 2 2 2 2 2 2 3 4 7 8 7 9 10 11 17 16 17 18
85 96 98 100 100 86 92 60 75 100 100 100 100 100 100 95 100 93 63 56 39 15 10 8 4 4 3 2 2 2 2 2 2 2 2 3 4 5 9 8 10 9 13 16 19 18 15
36 84 100 96 92 64 65 84 89 100 100 100 100 100 100 100 100 99 55 51 47 14 10 8 5 4 3 2 2 2 2 2 2 2 2 3 3 5 8 8 11 13 15 20 21 18 17
10 13 18 85 95 100 100 100 100 100 100 88 99 100 100 92 100 92 56 57 50 16 9 8 4 4 3 2 2 2 2 2 2 2 3 4 5 10 11 14 11 15 18 20 22 26 20
7 8 10 14 37 94 100 100 100 100 100 100 100 100 100 87 97 84 51 67 56 17 11 9 5 3 3 2 2 3 2 2 2 3 3 4 6 7 10 12 12 13 19 20 27 20 12
7 8 9 10 13 43 89 100 99 99 100 100 100 91 99 100 88 80 56 82 51 14 11 10 6 3 3 2 2 3 3 2 3 3 4 4 5 7 9 13 13 14 18 24 20 14 16
6 8 10 11 13 18 32 85 74 93 100 100 100 97 94 98 96 78 64 69 49 14 10 10 6 4 4 2 2 3 3 3 3 3 4 5 5 8 11 17 17 17 16 17 16 14 14
5 6 9 14 13 17 22 34 54 100 100 100 100 97 99 100 100 73 75 62 54 20 11 10 6 3 3 3 2 3 4 3 4 4 5 5 7 13 17 24 21 18 18 20 18 16 18
4 6 8 13 15 18 30 38 56 100 99 100 100 92 95 100 100 67 75 63 50 28 12 10 8 4 4 3 3 3 5 5 4 5 6 8 11 13 15 20 24 21 22 26 22 22 23
3 5 8 12 15 21 36 31 68 100 100 100 100 94 95 100 90 90 68 56 43 28 16 11 10 6 5 5 4 4 5 6 6 6 8 9 13 15 19 21 24 24 21 20 23 25 24
5 5 8 12 16 17 32 36 77 100 100 100 100 93 100 90 86 97 62 52 47 30 18 14 11 6 5 6 6 5 5 8 8 8 8 11 12 17 19 24 25 25 23 22 21 24 26
4 5 9 12 18 22 65 73 77 100 100 100 100 100 100 84 98 90 60 46 45 31 18 15 11 10 6 6 7 8 6 8 10 11 11 12 15 22 23 28 28 27 24 22 22 22 26
5 6 10 14 27 71 88 98 96 100 99 100 100 100 99 86 100 93 60 43 44 33 22 15 14 14 9 8 8 9 10 8 10 13 14 14 14 17 21 22 27 27 26 25 23 24 24
6 8 17 23 69 100 100 100 100 100 100 100 100 100 94 100 100 88 62 48 44 33 25 17 18 17 15 10 9 11 13 13 10 10 15 18 18 16 19 23 28 30 32 29 28 24 26
6 10 19 67 100 100 100 100 100 100 100 100 100 100 100 100 98 85 66 42 43 38 32 26 25 23 23 16 14 13 15 18 18 15 12 15 20 24 23 21 25 39 42 42 37 32 32
6 15 44 78 100 100 100 100 100 100 100 100 100 100 98 100 100 82 65 45 43 36 34 35 38 35 40 28 20 21 17 18 23 23 20 17 14 16 21 26 31 30 27 42 45 49 55
5 13 92 100 100 100 100 100 100 100 100 100 100 98 99 97 100 80 74 52 39 35 39 43 44 47 49 43 38 28 26 31 27 26 26 25 22 17 17 21 28 29 34 34 34 39 44
9 53 100 100 100 100 100 100 100 100 100 100 100 97 97 100 100 86 70 49 36 34 35 38 43 48 47 48 48 41 52 36 29 30 32 34 33 31 25 21 24 25 28 34 37 39 39
21 69 100 100 100 100 100 100 100 100 100 100 100 96 94 100 99 87 75 54 40 36 34 42 42 43 44 45 49 50 51 52 54 60 47 45 41 48 50 39 26 23 20 19 23 35 36
24 65 100 100 100 100 100 100 100 100 100 100 100 93 98 100 94 85 85 63 42 46 42 41 47 43 42 42 49 51 56 53 53 48 47 50 60 54 51 51 45 41 28 26 28 42 42
49 100 100 100 100 100 100 98 100 100 100 98 98 96 100 100 97 88 79 64 51 50 45 43 44 49 45 40 42 45 50 51 54 57 54 50 50 57 65 57 48 43 42 32 24 25 33
79 95 100 100 100 100 100 100 100 100 98 98 94 100 100 100 100 93 74 64 62 68 51 48 44 47 56 48 42 44 44 46 48 56 55 53 53 52 47 65 53 50 47 39 38 32 22

GFSGBSN_250_rhum_069.txt.gz
RH
76 69 52 48 57 94 100 99 92 74 71 52 51 52 74 73 73 57 59 65 71 90 57 42 30 13 10 10 8 8 6 3 2 2 2 2 1 1 2 2 2 2 3 4 6 7 8
100 92 95 74 77 87 73 62 57 50 43 52 60 81 77 55 53 69 69 83 59 71 44 40 18 11 8 10 9 6 4 3 2 2 2 1 1 2 2 2 3 3 4 5 6 7 8
100 82 65 94 88 84 81 72 49 60 44 76 57 47 56 75 75 84 85 81 61 48 51 26 16 8 7 9 8 5 3 2 2 2 1 2 2 2 2 3 3 4 5 7 6 7 9
79 68 52 59 53 50 57 66 81 71 64 51 57 70 78 76 87 85 76 86 68 56 56 19 13 7 9 8 6 3 2 2 2 1 2 2 2 2 3 3 4 4 4 4 4 7 9
36 37 35 51 52 54 56 64 72 75 67 60 61 67 80 86 93 73 59 73 62 60 40 21 10 7 9 7 4 3 2 2 2 1 2 2 2 3 3 3 4 4 5 7 7 6 10
12 11 10 10 14 25 33 36 38 38 44 50 69 82 97 92 83 70 72 80 72 48 34 22 8 8 10 6 3 2 2 2 1 1 2 2 3 3 3 3 4 4 4 7 11 8 16
15 14 13 15 15 13 11 15 14 18 17 17 21 43 100 83 92 88 71 100 60 42 35 19 6 9 9 5 3 2 2 2 1 2 2 2 3 4 4 4 4 4 5 6 10 16 12
10 10 9 11 13 13 11 9 10 9 9 10 15 24 45 98 88 75 99 79 48 40 28 10 7 10 6 4 3 2 2 1 2 2 2 2 3 4 4 5 5 5 7 9 8 16 8
16 10 8 7 8 8 11 9 8 7 8 12 16 21 39 67 56 92 100 66 53 35 21 9 9 8 4 3 3 2 2 2 2 2 2 2 3 4 5 6 6 5 8 10 10 17 12
20 14 8 6 6 6 8 8 8 7 9 12 16 16 37 66 76 100 91 63 44 28 14 7 12 8 4 3 2 2 2 2 2 2 2 2 3 4 6 9 9 8 12 10 11 15 15
12 11 8 6 5 5 6 7 7 8 8 14 15 21 55 51 85 100 70 59 46 30 8 13 12 6 4 3 3 2 2 2 2 2 2 2 4 5 6 6 11 10 16 27 17 17 22
9 7 5 4 3 3 4 5 9 10 12 15 17 32 79 62 87 78 64 62 49 32 17 14 11 7 4 3 3 2 2 2 2 2 2 2 4 5 6 12 13 16 17 26 24 21 22
4 3 2 2 2 3 3 5 6 8 14 19 21 50 42 77 98 67 75 72 49 28 16 14 10 6 5 5 3 2 2 2 2 2 2 3 3 4 6 10 12 14 21 23 27 25 37
2 2 1 2 2 2 3 4 4 6 14 19 30 61 40 93 87 76 88 85 45 19 13 14 10 6 5 5 3 3 2 2 2 2 2 4 5 6 10 15 19 16 15 18 27 29 30
1 1 1 1 2 2 3 6 5 6 14 23 70 42 91 100 89 89 99 72 52 31 12 13 9 7 5 4 3 3 3 3 3 3 3 4 6 9 15 16 19 22 21 14 18 22 28
1 1 1 2 2 3 4 5 5 5 18 30 58 78 100 100 98 98 98 94 72 28 14 11 8 7 5 4 3 3 3 3 4 4 4 4 6 9 12 15 22 18 24 23 20 21 20
2 1 1 2 3 3 6 6 6 11 35 86 52 97 100 100 100 92 100 100 66 18 13 12 10 7 5 5 4 4 4 4 4 5 5 4 7 10 18 22 28 32 25 22 28 33 31
1 1 2 2 3 2 7 7 10 38 94 65 100 100 100 100 99 100 100 100 58 23 13 14 11 8 6 6 4 6 6 5 6 6 7 7 6 8 10 16 21 23 28 30 28 26 24
1 2 3 2 2 3 6 8 12 95 76 98 100 100 100 100 100 100 100 77 52 22 12 15 12 8 6 6 5 7 8 7 7 9 10 9 10 10 10 12 16 21 24 25 24 26 28
1 2 4 3 3 4 6 8 53 56 73 100 100 100 100 98 100 100 100 66 50 29 19 13 14 11 8 7 7 9 11 10 9 9 11 12 15 16 16 16 16 18 23 27 28 24 22
2 2 4 4 4 6 6 13 38 70 99 100 100 100 100 100 100 100 91 60 41 30 25 18 17 15 13 11 11 10 12 13 14 14 14 12 12 14 18 23 27 28 24 22 25 28 29
2 4 4 5 7 7 8 10 35 97 100 100 100 100 100 100 100 100 70 48 36 31 27 23 26 24 25 21 17 14 15 17 23 23 22 23 26 20 18 20 23 24 31 40 37 34 35
3 6 5 7 7 8 9 24 48 96 100 100 100 100 100 100 100 95 55 43 37 34 31 29 32 29 31 32 29 29 25 29 30 29 29 30 32 31 36 33 26 21 18 22 26 33 43
4 6 6 6 6 9 18 58 73 100 100 91 100 100 100 100 100 84 49 41 37 36 33 33 32 32 38 39 37 35 36 42 38 37 38 46 44 49 44 42 38 35 33 33 26 21 22
6 7 6 6 8 15 23 65 63 88 98 100 100 100 100 100 99 82 50 43 42 37 36 33 36 37 43 42 44 45 43 44 50 51 52 54 41 41 46 54 74 68 61 50 44 36 34
10 8 7 7 14 28 40 48 77 98 100 100 100 100 100 100 98 83 52 46 45 38 38 35 34 37 40 39 40 42 46 45 48 46 51 53 62 56 56 58 42 66 78 85 76 75 68
13 11 7 7 10 27 39 52 73 92 99 100 96 100 100 100 95 86 79 60 56 39 40 44 41 36 35 34 36 38 41 42 44 46 42 40 46 51 55 63 61 61 64 67 62 66 73
14 12 10 9 12 13 30 50 86 92 99 100 99 100 100 99 91 93 81 67 50 44 45 45 48 48 50 44 41 39 43 44 42 40 43 46 45 49 54 59 66 62 66 65 64 79 79
17 19 16 16 16 37 46 74 76 99 100 89 100 100 100 98 85 93 86 72 61 53 51 48 47 52 57 58 54 53 55 49 40 39 39 40 42 42 49 55 60 54 68 75 58 53 55

GFSGBSN_250_rhum_072.txt.gz
RH
88 96 100 100 100 100 100 97 90 85 70 57 65 66 63 60 46 80 81 65 70 65 62 43 39 32 17 12 10 9 12 16 14 7 5 3 2 1 1 1 1 1 1 1 2 2 2
35 50 55 60 65 72 100 100 100 99 98 94 81 81 94 77 67 60 57 55 76 83 52 46 31 28 13 9 9 9 13 13 9 5 4 2 2 2 1 1 1 1 1 2 2 2 3
14 14 13 16 17 18 24 29 82 100 100 100 87 84 57 48 87 66 67 66 65 46 59 56 29 19 10 8 8 10 14 10 5 3 2 2 2 2 1 1 2 2 2 2 2 3 4
24 21 16 18 18 16 15 15 15 22 33 83 63 72 53 55 56 73 59 94 71 71 41 42 25 12 8 7 8 13 11 6 4 2 2 2 2 1 1 2 2 2 2 2 3 4 5
26 21 21 22 22 21 22 20 17 16 13 13 10 14 14 13 32 41 52 57 49 51 31 22 15 10 6 7 9 10 7 4 2 2 2 2 1 1 2 2 2 2 3 4 4 5 6
37 37 32 28 22 21 18 17 20 16 12 10 9 7 8 8 16 25 39 44 33 22 15 16 10 7 6 10 11 8 5 3 2 2 2 1 2 2 2 2 3 3 4 4 4 5 5
52 46 43 40 26 18 13 11 12 14 10 10 9 10 12 13 19 18 18 20 22 11 12 11 8 6 7 11 9 6 3 2 2 2 2 2 2 2 3 3 3 4 4 5 5 7 8
88 86 79 46 28 18 11 8 8 11 10 9 8 11 12 13 13 13 13 13 11 12 14 9 7 5 9 8 6 3 3 2 2 2 2 2 2 2 3 3 4 4 4 4 5 5 7
73 61 41 28 22 12 9 7 7 9 8 8 8 10 12 13 12 12 13 18 15 17 11 9 6 6 11 6 4 2 2 2 2 2 2 2 2 2 3 4 4 4 5 5 7 5 8
43 30 20 13 9 7 5 5 5 5 5 6 7 8 12 12 13 16 17 18 20 13 9 8 6 11 7 5 3 2 2 2 2 2 2 2 2 2 4 5 5 5 5 5 7 8 10
19 12 8 5 4 3 2 2 3 4 4 4 6 8 16 14 13 23 21 28 21 15 8 8 9 10 6 4 2 2 2 2 2 2 2 2 2 3 4 5 5 6 6 8 11 11 17
13 7 5 3 2 2 2 2 2 3 4 5 5 7 16 14 46 30 38 44 29 17 9 9 11 8 5 3 2 3 2 2 2 2 2 2 3 4 5 7 9 10 10 13 12 12 22
4 3 2 2 2 1 1 1 2 2 4 5 4 9 14 28 54 49 65 41 39 13 9 11 14 6 4 3 3 2 2 2 2 2 2 2 3 4 5 6 9 16 15 17 15 22 27
3 2 2 1 1 1 1 1 2 3 4 4 7 10 19 47 49 70 72 52 30 13 13 18 9 7 4 3 3 2 2 2 2 2 2 3 3 3 5 8 9 14 29 23 27 25 28
2 2 2 2 1 1 1 2 3 3 4 6 6 16 42 60 58 82 78 43 25 19 18 11 9 5 4 4 3 2 3 3 3 2 3 4 6 6 6 7 11 13 17 28 40 40 48
2 2 2 2 1 1 2 2 3 4 9 7 9 40 67 62 74 100 80 47 24 19 15 11 7 5 4 3 3 3 3 3 3 3 4 3 5 8 13 14 15 14 15 16 17 25 43
2 2 1 1 2 2 2 2 6 7 11 10 28 55 74 92 100 100 95 39 23 18 14 9 7 5 4 3 4 4 3 3 4 4 5 6 6 5 9 12 16 15 16 20 18 24 22
2 2 1 1 2 2 2 2 5 10 11 37 46 80 100 100 100 100 86 37 19 18 14 10 8 6 5 3 4 4 4 4 5 6 6 6 7 8 9 10 13 18 20 19 19 18 18
2 2 1 2 2 3 3 4 8 8 26 58 99 100 100 100 100 100 67 32 23 18 17 12 8 7 6 5 4 6 7 6 6 7 8 10 11 12 10 16 19 22 27 24 26 27 25
2 2 2 2 4 4 4 7 8 20 21 61 98 100 100 100 100 89 60 37 25 19 17 12 10 8 7 6 6 8 10 10 10 9 10 12 13 15 22 22 23 22 25 30 30 32 32
2 2 2 4 5 5 5 7 11 29 45 72 90 100 100 100 97 73 56 38 26 24 16 13 12 11 9 8 8 11 16 18 18 17 17 20 16 16 18 18 21 30 38 38 35 37 41
2 2 4 7 5 5 6 8 16 24 55 74 100 100 100 100 82 61 46 41 34 28 21 17 15 14 11 13 15 12 16 20 23 27 33 28 25 23 25 24 22 24 24 23 26 34 46
3 4 7 7 7 7 5 11 14 42 60 96 100 100 100 96 72 52 42 38 37 32 29 27 25 23 23 24 24 23 20 23 31 36 41 43 43 38 38 35 32 27 28 28 28 28 28
4 8 11 9 7 8 10 11 32 51 92 100 100 100 100 84 56 48 42 39 35 33 36 36 33 33 36 39 39 39 38 36 37 36 40 41 45 53 64 64 71 67 60 53 46 40 35
6 10 13 9 8 8 9 15 37 71 94 100 100 100 89 60 52 47 46 44 38 37 36 37 34 38 40 40 39 39 40 46 47 49 53 50 45 44 45 52 60 73 67 68 64 69 68
10 15 12 9 10 8 9 18 51 88 100 100 100 98 87 56 51 48 50 46 42 40 35 35 35 38 38 39 37 40 41 39 39 42 46 48 54 56 55 56 60 48 51 52 68 73 74
12 15 13 12 11 9 16 26 58 94 100 100 100 96 90 60 51 50 58 46 46 40 43 43 43 40 37 44 45 54 52 53 53 51 50 51 49 51 56 59 69 63 64 68 59 60 58
15 13 16 14 12 12 24 43 81 100 95 96 100 98 94 80 72 68 60 50 51 46 42 43 45 44 42 45 47 49 44 41 43 47 54 56 54 54 56 61 64 63 69 74 71 68 58
14 16 21 23 18 26 39 75 100 99 100 100 100 100 100 97 83 68 59 54 52 52 44 42 42 40 41 41 41 45 46 51 51 49 50 54 52 56 70 62 72 68 72 70 70 77 92

GFSGBSN_250_rhum_075.txt.gz
RH
18 22 25 23 23 26 24 20 20 22 29 26 55 61 99 100 87 94 79 96 92 87 86 86 81 64 54 47 34 32 21 12 11 10 11 15 12 8 6 4 2 3 2 2 2 1 2
34 31 36 34 28 30 29 27 24 21 18 16 16 12 20 27 54 86 47 53 90 98 82 93 80 56 37 24 21 17 12 8 9 11 14 12 7 6 4 3 2 2 2 1 1 1 1
54 51 50 51 43 36 42 38 38 26 20 14 15 14 10 10 10 18 19 36 47 84 100 71 50 19 14 14 16 12 7 8 9 14 10 6 5 4 3 3 2 1 1 1 1 1 2
56 68 70 59 58 58 47 51 39 30 22 17 13 15 13 13 8 8 9 10 15 56 57 38 24 13 12 10 8 6 7 8 11 10 7 5 4 3 2 2 1 1 1 1 1 2 2
92 94 81 82 62 64 66 51 32 26 26 18 16 10 11 13 10 8 10 7 12 12 9 9 8 7 7 8 5 6 8 8 8 6 5 4 3 2 2 1 2 2 1 2 2 2 2
100 98 84 79 78 54 44 50 45 31 17 16 12 11 11 11 10 10 10 8 9 8 7 5 5 5 5 4 5 6 8 8 6 4 4 3 2 2 2 2 2 2 2 2 2 3 4
100 88 82 43 57 54 43 26 23 19 16 8 8 8 10 11 10 13 10 10 7 7 7 7 5 4 3 4 6 6 7 7 5 4 3 3 2 2 2 2 2 2 2 3 3 4 4
92 78 41 23 22 21 18 15 10 10 9 9 6 6 8 8 11 13 9 11 9 9 9 7 4 2 4 6 6 6 5 5 4 3 2 2 2 2 2 2 2 3 3 3 3 4 6
70 44 28 14 10 7 5 4 3 4 5 6 5 5 6 7 9 9 10 10 10 9 7 4 3 3 5 7 6 5 4 4 2 2 2 2 2 2 2 2 3 4 4 4 4 6 6
39 17 10 6 4 3 2 2 2 2 3 4 4 4 6 7 8 8 10 10 10 9 7 5 4 6 5 5 4 4 4 3 2 2 2 2 2 2 2 2 4 4 5 5 4 5 6
17 9 5 3 2 2 2 2 1 2 2 2 2 3 6 8 8 8 8 10 11 8 7 6 8 6 5 6 4 4 3 2 2 2 2 2 2 2 2 3 4 5 6 6 5 6 8
11 6 3 2 2 2 1 1 1 1 2 2 2 4 6 7 8 7 9 11 9 9 7 8 8 8 6 5 4 3 2 2 2 2 2 2 2 2 3 4 5 6 6 5 6 8 9
6 3 2 2 2 2 2 1 1 1 2 2 2 3 4 7 7 7 9 9 10 8 11 12 10 9 6 5 3 3 2 2 2 2 2 2 2 3 3 5 6 8 8 8 9 9 12
3 2 2 2 1 2 1 1 1 1 2 2 2 3 4 6 6 8 9 11 12 14 20 15 10 7 5 3 3 3 2 2 2 2 2 2 2 3 4 6 8 10 11 11 14 15 14
2 2 2 2 1 1 1 1 1 2 2 3 4 5 5 5 7 12 13 15 18 29 16 12 8 5 4 4 3 2 2 2 2 2 2 2 4 4 5 7 10 12 13 15 18 19 16
2 2 2 1 1 1 1 2 2 2 4 6 5 7 6 7 12 12 18 30 34 23 13 8 6 5 4 3 2 2 2 2 2 2 3 3 4 5 6 8 11 12 12 20 21 22 22
2 2 2 1 2 2 2 2 2 3 6 9 8 9 10 18 17 28 36 35 22 13 9 7 6 5 4 3 2 2 2 3 3 3 3 4 5 5 10 10 13 12 14 14 17 19 17
2 2 2 2 2 3 4 4 5 5 7 12 10 15 26 36 41 51 54 20 14 11 9 7 6 6 4 4 4 3 4 3 4 4 4 4 5 7 8 10 13 18 22 19 18 18 17
2 2 2 2 3 3 4 5 6 8 12 12 22 58 55 53 69 59 24 19 14 11 9 9 8 6 6 5 4 5 6 6 6 7 8 6 6 7 9 12 17 17 30 32 31 29 25
2 2 3 4 4 5 5 6 9 10 10 34 67 71 59 58 62 27 23 18 14 11 12 10 8 7 6 6 6 9 10 11 11 11 11 11 12 12 12 12 12 15 23 32 38 42 41
2 3 4 5 6 6 5 8 10 11 20 45 70 56 65 58 36 24 22 18 15 14 15 10 9 8 8 8 11 13 14 16 19 22 22 21 22 19 18 19 21 19 16 16 22 29 29
3 5 6 8 9 8 8 11 14 27 46 53 59 69 57 36 30 25 22 18 15 14 12 11 8 8 9 10 11 11 14 20 24 24 24 26 30 33 33 35 38 40 36 32 29 26 26
4 6 9 11 11 9 9 10 21 54 42 78 79 65 39 35 35 30 28 20 20 18 16 16 13 13 16 18 20 20 20 26 30 39 40 38 40 48 50 45 43 45 45 40 45 49 50
5 8 12 12 11 10 11 16 42 63 83 78 72 53 38 39 37 35 32 27 27 28 28 28 28 27 34 37 41 39 33 31 36 36 46 48 55 59 56 52 54 54 56 59 64 66 65
7 11 14 14 11 12 11 20 63 81 71 79 64 45 39 40 38 39 37 32 33 32 32 35 37 38 40 45 42 45 50 51 53 49 46 46 43 46 57 61 63 69 67 55 50 56 64
10 16 19 14 14 18 27 62 100 80 78 72 52 46 45 42 42 44 41 39 38 36 34 34 41 39 39 39 36 39 44 47 49 51 50 49 54 55 59 58 55 58 56 65 64 59 59
12 16 23 24 25 24 52 88 90 81 88 61 53 51 49 46 44 40 38 39 38 40 41 39 37 36 34 40 42 41 40 39 41 48 52 47 54 60 61 61 60 60 61 63 68 72 79
15 22 29 28 31 48 73 79 75 90 82 59 54 55 56 53 48 44 44 47 48 43 41 42 41 42 43 46 46 44 47 50 51 51 52 53 58 68 70 66 64 67 72 75 80 68 85
17 22 31 30 41 47 73 67 75 92 82 65 58 61 61 58 51 51 48 50 45 45 43 42 44 47 48 48 48 52 51 53 55 57 56 58 70 65 65 69 75 73 83 84 86 82 95

GFSGBSN_250_rhum_078.txt.gz
RH
33 49 41 39 41 44 47 46 48 47 47 37 21 20 17 15 12 12 13 15 31 54 42 24 27 32 55 42 33 31 27 27 36 30 23 11 9 12 11 10 8 7 5 5 6 5 4
52 45 49 47 56 68 68 75 81 65 58 52 41 27 21 18 15 13 13 12 14 13 13 9 9 13 19 35 22 16 16 21 24 12 8 9 11 10 11 8 5 4 4 4 5 3 2
55 56 61 78 84 83 94 100 78 64 54 52 45 37 26 19 15 14 14 12 9 7 7 7 6 6 6 8 9 9 9 13 9 8 8 9 10 9 7 5 5 4 4 3 4 3 2
55 65 78 86 100 98 80 75 53 39 35 36 42 40 36 26 16 13 12 10 8 7 7 6 5 6 4 4 5 5 6 6 7 6 8 9 8 6 5 5 4 4 4 3 2 2 2
70 82 94 99 100 100 71 48 27 20 24 22 21 35 36 25 17 14 9 9 7 8 7 6 7 4 4 4 3 3 3 4 5 6 7 7 6 5 4 4 3 3 2 2 1 1 1
89 93 90 89 60 38 31 15 12 12 12 15 11 12 14 15 18 13 9 8 6 8 8 7 6 4 3 3 3 3 3 5 6 7 6 5 4 4 3 3 2 2 1 1 2 2 2
93 96 98 71 49 20 11 9 7 6 6 7 6 5 6 8 9 11 9 9 8 8 7 7 5 4 3 3 2 3 4 6 6 5 5 4 4 3 2 2 1 1 2 2 2 2 2
79 87 90 53 17 7 5 4 3 3 3 3 3 3 3 5 7 9 9 12 10 9 7 7 5 4 3 3 4 4 5 5 5 5 4 4 3 2 2 1 1 2 2 2 2 2 2
66 62 28 11 4 3 2 2 2 2 2 2 2 2 2 3 5 7 10 12 10 8 9 6 5 4 4 4 5 4 4 5 5 4 3 2 2 2 1 2 2 2 2 2 2 3 3
65 36 6 3 2 2 2 2 2 2 2 2 2 1 1 2 4 6 8 10 8 9 7 7 7 4 4 6 4 4 4 4 3 2 2 2 2 2 2 2 2 2 2 2 3 3 3
35 7 3 2 2 2 1 1 1 1 1 1 1 1 1 2 4 4 7 7 8 8 7 8 7 7 4 5 4 4 3 3 2 2 2 2 2 2 2 2 2 2 3 4 4 4 4
8 3 2 2 2 1 1 1 1 1 1 1 1 1 2 3 3 4 4 7 8 7 8 7 8 8 5 4 4 3 2 2 2 2 2 2 2 2 2 2 2 3 5 5 5 5 6
4 2 2 2 1 1 1 1 1 1 1 1 1 2 2 3 2 2 6 7 6 9 8 11 11 6 5 4 3 3 2 2 2 2 2 2 2 2 2 3 4 4 6 6 7 7 6
3 2 2 2 1 1 1 1 1 1 1 1 1 1 2 2 3 4 5 8 10 9 16 12 7 5 4 4 3 2 2 2 2 2 2 2 2 2 3 4 6 8 8 8 9 9 10
3 2 2 2 1 1 1 1 1 1 2 2 2 3 4 4 5 6 9 9 14 15 10 8 6 5 4 4 3 2 2 2 2 2 2 2 3 4 5 6 8 9 10 12 13 18 20
3 2 2 2 2 1 2 2 2 2 3 4 4 5 6 7 9 9 14 15 12 10 9 7 6 5 5 3 3 2 2 2 2 2 2 3 4 5 7 8 10 11 13 18 18 20 27
3 2 2 2 2 2 3 3 3 3 4 5 6 10 9 10 12 16 13 12 11 10 7 6 5 4 4 3 3 3 2 2 2 2 2 3 4 5 8 11 12 13 17 17 17 22 30
3 3 3 2 4 4 4 4 4 5 6 8 10 10 13 16 15 15 14 11 9 7 6 6 5 4 4 4 4 3 3 3 3 3 3 4 5 7 10 15 20 21 19 19 21 16 22
5 4 3 4 6 6 6 6 7 12 11 10 13 18 17 16 14 13 12 10 8 7 7 6 5 5 5 5 4 4 3 4 4 5 5 6 8 8 10 15 21 30 34 34 30 30 28
6 4 5 6 7 7 8 8 12 14 14 21 20 18 15 14 14 15 12 10 8 8 8 8 7 6 6 5 6 6 6 7 7 8 8 9 10 11 12 12 12 16 19 29 31 29 35
6 6 8 10 9 8 12 12 14 22 33 20 17 15 15 18 19 17 14 12 11 11 10 8 7 8 8 8 10 12 14 15 16 18 19 20 22 21 17 17 20 18 20 21 24 25 26
11 14 14 13 12 10 10 16 34 44 26 20 19 19 21 22 19 18 16 15 14 12 10 11 10 10 11 11 11 11 14 18 21 23 23 22 23 23 26 28 31 38 40 37 33 33 31
18 22 27 17 15 12 12 21 34 34 23 22 24 23 22 19 17 16 15 15 14 11 10 10 9 9 12 13 16 21 26 28 32 35 35 34 33 30 32 35 38 38 37 39 42 40 46
29 36 33 18 15 17 24 29 37 25 23 23 23 23 22 19 18 18 17 16 17 17 14 16 18 20 22 23 23 25 28 34 37 37 38 42 45 44 42 42 48 49 45 47 47 48 49
30 34 29 26 28 33 41 45 34 29 27 28 30 27 24 27 26 26 25 23 22 24 26 28 30 33 35 36 37 38 41 39 42 41 42 43 48 49 51 48 51 51 48 50 55 54 52
29 46 35 28 37 40 55 46 37 34 33 37 40 36 29 28 32 31 31 30 32 33 34 34 36 38 40 41 44 44 44 46 50 49 53 53 52 60 61 53 54 50 57 56 53 55 59
48 49 46 43 55 50 60 55 41 40 40 40 39 37 34 35 35 36 36 36 36 38 41 39 40 43 49 50 47 50 52 50 51 48 47 53 52 55 67 74 75 71 72 67 58 60 62
43 46 47 53 65 56 69 58 43 45 45 47 47 44 40 42 47 46 44 44 46 47 48 47 48 50 50 48 50 50 49 49 51 53 54 61 70 60 55 79 80 65 72 82 86 77 71
47 72 64 57 66 74 81 60 48 50 48 48 46 47 47 48 48 47 45 44 45 45 47 49 48 48 48 49 47 49 51 51 52 57 60 57 65 70 71 75 77 80 93 82 80 91 92

GFSGBSN_250_rhum_084.txt.gz
RH
100 100 100 94 94 100 100 96 93 84 88 92 91 68 83 61 48 36 36 29 20 18 18 15 13 10 8 6 5 5 6 7 10 15 13 14 12 10 11 12 11 12 12 12 13 12 12
98 100 100 92 93 100 100 100 100 97 100 90 70 79 82 92 66 64 79 52 40 25 18 16 12 11 7 6 5 5 4 5 6 9 10 9 10 9 9 8 9 10 12 12 11 12 11
100 100 99 92 100 100 100 100 100 96 100 100 78 53 76 77 77 85 52 67 44 34 19 17 14 14 8 6 5 5 5 5 5 6 7 7 8 9 7 6 6 8 13 15 12 8 8
100 90 88 97 100 95 94 95 74 63 45 40 37 45 37 32 41 54 59 44 36 25 26 14 15 17 11 7 6 5 6 6 6 6 5 5 6 7 8 6 7 8 10 11 9 8 6
94 74 84 75 82 67 40 24 16 11 7 6 6 7 9 9 8 14 21 28 32 18 16 13 15 16 13 9 6 6 6 6 6 4 4 3 3 3 4 6 7 7 6 6 6 5 4
58 70 71 47 20 11 8 6 6 5 4 3 3 3 3 3 3 4 4 8 13 14 11 11 12 14 12 8 6 6 7 7 5 5 3 3 3 3 4 4 4 4 3 4 4 4 3
31 36 19 10 7 6 4 4 3 2 2 2 2 2 2 2 2 2 3 4 4 6 7 8 10 10 10 8 6 7 7 6 5 5 4 3 3 3 3 2 2 2 3 3 2 2 3
27 14 9 7 6 4 3 2 2 2 2 2 2 2 2 2 2 2 2 2 3 3 4 6 7 9 8 8 8 7 7 6 6 4 4 4 3 2 2 2 2 2 2 2 2 2 3
7 5 4 3 3 2 2 2 2 1 1 1 1 1 1 1 2 2 2 2 2 3 3 4 7 7 10 8 7 7 7 5 4 4 4 3 2 2 2 2 2 2 2 2 2 3 3
5 5 4 3 2 2 1 1 1 1 1 1 1 1 1 1 2 2 2 2 3 2 3 4 6 9 7 7 7 6 7 5 5 4 4 2 2 2 2 2 2 3 3 3 3 3 3
6 5 4 3 2 1 1 1 1 1 1 1 1 1 1 1 1 1 2 2 2 2 4 6 8 8 7 8 8 10 9 6 5 4 3 3 2 3 3 4 4 4 3 3 3 2 2
7 5 4 3 2 2 1 1 1 1 1 1 1 1 1 1 1 1 2 2 2 3 5 7 8 7 8 10 12 15 9 4 6 6 4 5 5 5 5 4 3 3 2 2 2 2 2
6 4 3 3 3 2 2 2 1 1 1 1 1 1 1 1 1 1 2 2 3 4 6 6 6 10 12 13 12 16 9 11 8 6 6 5 4 3 2 2 2 2 2 2 2 2 2
10 10 7 4 4 4 2 2 2 2 1 1 2 1 1 1 2 2 2 3 4 5 6 8 10 11 13 15 15 10 9 8 6 4 3 3 2 2 2 2 2 2 3 3 4 4 4
40 35 13 7 7 5 4 3 3 3 2 2 2 2 2 2 2 3 3 4 6 8 9 8 10 11 12 11 9 7 6 4 3 3 2 2 2 2 2 3 3 4 5 5 6 6 6
54 40 29 16 10 8 5 4 4 3 4 4 4 4 4 4 4 5 6 7 6 8 11 10 10 9 8 6 5 4 3 3 2 2 2 2 2 3 4 4 5 7 7 8 7 7 8
62 47 30 24 18 15 11 8 6 6 5 5 6 5 4 4 5 5 6 6 7 8 8 7 6 5 4 4 3 3 2 2 2 2 2 3 4 4 5 7 8 10 8 10 13 11 16
52 36 27 23 21 17 16 15 16 11 11 6 7 13 6 5 7 8 8 7 7 6 5 5 4 3 3 3 2 2 2 2 2 3 2 4 4 6 7 9 10 11 13 20 17 21 26
51 35 26 21 16 15 14 14 15 14 14 13 9 12 9 7 5 5 5 5 4 4 4 4 3 3 3 3 3 3 3 3 3 3 4 6 6 9 9 8 11 12 16 21 25 33 44
57 40 31 23 18 14 12 11 11 9 8 8 8 7 7 5 5 5 5 4 4 4 4 4 4 4 4 4 4 4 4 4 5 5 6 7 7 8 10 10 12 11 11 11 16 27 32
72 43 31 24 19 15 13 11 9 9 8 7 8 7 6 6 6 5 4 4 4 6 6 5 6 6 7 6 7 8 9 9 8 8 8 8 9 9 10 13 14 18 17 16 16 17 22
81 52 37 27 21 16 14 12 12 11 10 10 10 8 10 10 7 6 8 8 10 10 11 10 10 10 11 11 12 14 16 16 17 19 21 22 24 24 24 25 25 24 21 19 21 28 31
100 73 43 33 25 20 18 16 17 14 13 12 11 14 17 15 15 15 13 14 13 12 10 11 13 13 14 15 17 18 18 20 21 23 25 27 27 27 28 29 32 35 38 41 42 43 43
68 100 59 41 33 26 23 20 20 21 20 20 18 20 20 21 19 18 18 16 15 14 14 16 16 18 18 19 21 22 25 26 27 28 27 27 28 29 30 33 34 38 39 37 38 39 38
36 93 87 54 41 33 27 25 22 22 22 21 21 20 21 21 21 23 22 22 23 23 23 25 23 24 26 28 29 30 31 30 32 34 35 36 38 38 38 40 41 42 43 46 48 46 43
29 53 99 70 53 39 34 31 29 29 29 28 27 28 28 27 30 30 30 33 34 34 36 35 36 34 36 36 36 40 42 42 40 40 44 43 43 45 45 44 43 44 45 47 48 51 52
31 41 81 66 68 51 45 38 38 38 39 39 37 36 36 38 39 39 39 42 45 45 45 45 47 48 49 48 50 51 52 52 53 55 53 53 55 55 57 57 59 55 58 57 50 48 48
61 32 58 100 89 70 56 51 42 43 44 45 46 44 43 43 44 44 43 42 43 44 44 45 47 50 50 51 53 54 56 59 64 64 64 66 65 66 64 62 60 60 67 70 63 64 63
64 48 34 72 100 88 68 59 57 48 48 46 47 52 52 49 48 48 48 48 47 48 51 53 52 53 55 58 60 60 60 60 59 62 65 68 70 69 65 64 62 65 67 73 85 86 82

GFSGBSN_250_rhum_087.txt.gz
RH
98 82 65 88 100 100 100 100 100 100 97 88 86 85 93 87 69 77 69 66 66 44 35 26 32 22 19 15 15 11 10 8 8 8 8 10 10 10 11 10 8 8 9 11 13 13 14
52 52 83 100 100 100 100 100 100 99 98 87 89 100 85 80 74 75 75 64 60 49 45 48 36 25 20 17 18 14 11 9 8 7 6 6 6 6 8 8 8 7 7 8 10 14 12
41 59 67 62 60 50 42 39 39 39 34 39 35 47 52 49 54 54 50 58 48 51 48 40 39 31 28 22 22 14 12 10 9 6 6 5 5 5 5 5 5 5 5 6 8 9 11
22 23 17 14 12 10 9 9 8 8 8 8 8 9 10 12 20 26 29 33 48 48 38 39 32 35 27 24 28 15 12 9 8 6 6 5 5 4 4 4 4 3 4 5 5 7 7
18 21 12 8 6 5 5 5 4 4 4 5 5 5 6 6 7 7 8 13 17 40 36 28 31 33 23 27 26 16 13 10 8 6 6 5 4 4 4 3 3 3 4 4 5 6 5
13 9 8 6 6 6 6 5 4 3 2 2 3 3 3 3 4 5 5 5 6 16 13 19 23 16 18 27 19 15 14 11 8 6 6 5 5 4 3 3 3 3 3 3 3 4 3
20 9 6 5 4 3 3 2 2 2 2 2 2 2 2 2 2 2 4 3 4 6 6 6 6 13 13 15 14 13 10 10 7 8 7 6 4 3 4 3 3 3 3 3 2 2 2
20 12 10 6 5 3 3 2 2 1 1 1 1 1 1 2 2 2 2 2 3 3 4 3 4 5 7 9 10 12 9 8 9 9 6 5 5 4 3 3 3 2 2 2 2 2 2
18 22 23 11 6 4 3 2 1 1 1 1 1 1 1 1 2 2 2 2 2 3 3 3 3 4 4 7 8 8 8 11 9 6 5 5 4 4 3 2 2 2 2 2 2 2 2
23 21 23 17 7 5 3 2 2 1 1 1 1 1 1 1 1 2 2 2 2 2 2 3 3 4 5 6 7 8 11 11 7 6 6 6 4 3 3 3 2 2 2 2 2 2 2
26 25 22 22 8 5 3 2 2 1 1 1 1 1 1 1 1 1 2 2 2 2 2 3 3 4 5 6 9 11 13 9 8 8 5 4 3 3 3 2 2 2 2 2 2 2 3
28 25 22 19 18 7 5 3 2 1 1 1 1 1 1 1 1 1 2 2 2 2 2 2 4 5 7 9 11 16 13 8 6 6 4 4 5 5 4 4 4 3 3 3 3 4 4
28 25 21 19 16 11 6 4 2 2 2 2 1 1 1 1 1 1 2 2 2 2 2 4 5 7 10 12 13 12 7 6 8 9 8 7 8 7 6 5 5 4 4 3 3 2 2
26 24 20 17 15 14 8 4 3 3 2 2 2 2 1 1 1 2 2 2 3 3 4 6 7 9 10 10 8 10 9 8 13 13 9 8 6 5 4 4 3 2 2 2 2 2 2
29 28 22 16 13 11 14 7 4 4 4 3 3 2 2 2 2 2 3 3 4 4 5 6 7 8 10 11 12 11 14 11 8 6 5 4 3 3 3 3 2 2 2 3 3 3 4
36 30 22 15 12 10 9 12 10 6 5 4 6 4 3 3 3 3 3 4 4 6 7 8 9 10 14 17 14 9 7 5 4 3 3 3 3 3 3 3 3 4 4 4 5 5 5
36 30 26 17 11 9 8 8 10 13 13 8 8 10 7 5 4 5 5 4 5 6 10 12 13 12 10 8 5 4 3 3 3 4 4 4 4 4 5 5 6 6 7 7 8 8 6
35 39 28 17 12 9 7 6 7 7 8 9 7 11 11 10 7 8 8 8 8 9 8 7 5 4 3 3 3 3 3 4 4 4 4 5 6 7 6 7 8 8 8 10 12 14 13
34 35 31 21 14 10 7 6 6 6 6 6 5 6 7 7 6 6 5 4 4 4 3 3 3 3 3 3 4 4 4 4 4 5 6 8 8 8 8 8 8 7 9 18 18 22 23
46 31 33 30 16 13 10 7 6 6 6 5 4 5 5 4 4 4 4 3 3 3 4 4 4 4 5 5 5 5 5 5 6 7 8 8 8 9 10 10 10 10 10 17 16 20 32
42 41 30 34 26 16 13 12 9 8 8 7 5 6 7 5 5 4 4 4 5 6 6 6 6 6 6 6 6 6 6 6 7 8 8 8 8 9 11 12 14 16 17 20 21 23 24
29 42 33 30 38 26 20 16 13 12 13 6 10 15 16 14 12 13 12 12 12 12 12 12 12 13 13 14 15 14 13 13 15 16 18 19 22 21 22 24 24 24 24 26 24 23 21
40 33 44 36 33 40 30 23 21 22 17 15 16 19 18 17 16 16 16 15 15 15 16 15 17 17 18 18 19 21 21 21 21 23 25 28 30 30 33 35 31 35 36 35 35 39 39
69 27 32 40 37 41 42 35 30 30 29 25 23 19 18 19 18 20 22 24 26 26 24 24 24 24 24 25 25 26 26 28 31 32 32 32 33 34 35 40 40 39 41 42 43 42 45
99 45 33 45 40 38 46 46 42 37 36 36 32 33 30 27 26 24 24 28 31 32 31 31 30 30 31 32 33 33 34 36 37 40 38 38 39 40 40 42 43 42 42 42 38 40 40
100 67 31 36 46 40 42 49 49 49 44 42 43 40 37 36 36 37 36 37 37 38 38 39 41 39 39 39 40 40 40 41 43 42 42 43 43 42 42 43 42 42 45 45 45 46 46
100 74 31 29 37 48 40 44 51 51 54 52 50 49 46 42 42 42 45 46 45 46 48 48 48 50 51 51 53 55 56 57 56 55 55 53 52 52 49 50 51 53 53 53 50 50 51
64 79 77 64 39 34 47 48 45 51 54 61 58 55 52 50 48 50 51 54 55 56 58 62 62 62 62 63 64 64 64 66 67 68 70 69 67 65 64 62 64 67 68 67 64 61 63
36 97 68 89 48 38 39 44 52 48 50 55 59 66 65 61 57 57 56 58 65 67 69 67 65 68 70 73 77 79 81 83 84 80 76 74 74 77 78 76 71 69 70 69 68 68 66